Time,TemperatureF,DewpointF,PressureIn,WindDirection,WindDirectionDegrees,WindSpeedMPH,WindSpeedGustMPH,Humidity,HourlyPrecipIn,Conditions,Clouds,dailyrainin,SolarRadiationWatts/m^2,SoftwareType,DateUTC
2013-06-10 00:00:00,58.3,51.8,29.75,NNW,337,1.0,4.0,79,0.00,,,-99.99,0,WeatherLink 5.7,2013-06-10 07:00:00,
2013-06-10 00:05:00,58.1,52.0,29.75,East,90,1.0,4.0,80,0.00,,,0.00,,Wunderground v.1.13,2013-06-10 07:05:00,
2013-06-10 00:10:00,58.1,52.0,29.75,East,90,1.0,4.0,80,0.00,,,0.00,,Wunderground v.1.13,2013-06-10 07:10:00,
2013-06-10 00:15:00,58.1,52.0,29.75,East,90,1.0,4.0,80,0.00,,,-99.99,0,WeatherLink 5.7,2013-06-10 07:15:00,
2013-06-10 00:20:00,58.1,52.0,29.75,East,90,1.0,4.0,80,0.00,,,0.00,,Wunderground v.1.13,2013-06-10 07:20:00,
2013-06-10 00:25:00,58.1,51.6,29.72,NW,315,1.0,12.0,79,0.00,,,0.00,,Wunderground v.1.13,2013-06-10 07:25:00,
2013-06-10 00:30:00,58.1,51.6,29.72,NW,315,1.0,12.0,79,0.00,,,-99.99,0,WeatherLink 5.7,2013-06-10 07:30:00,
2013-06-10 00:35:00,58.1,51.6,29.72,NW,315,1.0,12.0,79,0.00,,,0.00,,Wunderground v.1.13,2013-06-10 07:35:00,
2013-06-10 00:40:00,58.1,51.6,29.78,East,90,1.0,6.0,79,0.00,,,0.00,,Wunderground v.1.13,2013-06-10 07:40:00,
2013-06-10 00:45:00,58.1,51.6,29.78,East,90,1.0,6.0,79,0.00,,,-99.99,0,WeatherLink 5.7,2013-06-10 07:45:00,
2013-06-10 00:50:00,58.1,51.6,29.78,East,90,1.0,6.0,79,0.00,,,0.00,,Wunderground v.1.13,2013-06-10 07:50:00,
2013-06-10 00:55:00,58.4,51.6,29.78,East,90,0.0,2.0,78,0.00,,,0.00,,Wunderground v.1.13,2013-06-10 07:55:00,
2013-06-10 01:00:00,58.4,51.6,29.78,East,90,0.0,2.0,78,0.00,,,-99.99,0,WeatherLink 5.7,2013-06-10 08:00:00,
2013-06-10 01:05:00,58.4,51.6,29.78,East,90,0.0,2.0,78,0.00,,,0.00,,Wunderground v.1.13,2013-06-10 08:05:00,
2013-06-10 01:10:00,58.3,51.5,29.75,East,90,1.0,9.0,78,0.00,,,0.00,,Wunderground v.1.13,2013-06-10 08:10:00,
2013-06-10 01:15:00,58.3,51.5,29.75,East,90,1.0,9.0,78,0.00,,,-99.99,0,WeatherLink 5.7,2013-06-10 08:15:00,
2013-06-10 01:20:00,58.3,51.5,29.75,East,90,1.0,9.0,78,0.00,,,0.00,,Wunderground v.1.13,2013-06-10 08:20:00,
2013-06-10 01:25:00,58.1,51.3,29.74,ENE,68,1.0,7.0,78,0.00,,,0.00,,Wunderground v.1.13,2013-06-10 08:25:00,
2013-06-10 01:30:00,58.1,51.3,29.74,ENE,67,1.0,7.0,78,0.00,,,-99.99,0,WeatherLink 5.7,2013-06-10 08:30:00,
2013-06-10 01:35:00,58.1,51.3,29.74,ENE,68,1.0,7.0,78,0.00,,,0.00,,Wunderground v.1.13,2013-06-10 08:35:00,
2013-06-10 01:40:00,58.0,51.2,29.70,East,90,2.0,12.0,78,0.00,,,0.00,,Wunderground v.1.13,2013-06-10 08:40:00,
2013-06-10 01:45:00,58.0,51.2,29.70,East,90,2.0,12.0,78,0.00,,,-99.99,0,WeatherLink 5.7,2013-06-10 08:45:00,
2013-06-10 01:50:00,58.0,51.2,29.70,East,90,2.0,12.0,78,0.00,,,0.00,,Wunderground v.1.13,2013-06-10 08:50:00,
2013-06-10 01:55:00,58.0,51.9,29.74,East,90,2.0,11.0,80,0.00,,,0.00,,Wunderground v.1.13,2013-06-10 08:55:00,
2013-06-10 02:00:00,58.0,51.9,29.74,East,90,2.0,11.0,80,0.00,,,-99.99,0,WeatherLink 5.7,2013-06-10 09:00:00,
2013-06-10 02:05:00,58.0,51.9,29.74,East,90,2.0,11.0,80,0.00,,,0.00,,Wunderground v.1.13,2013-06-10 09:05:00,
2013-06-10 02:10:00,57.8,51.3,29.75,East,90,1.0,5.0,79,0.00,,,0.00,,Wunderground v.1.13,2013-06-10 09:10:00,
2013-06-10 02:15:00,57.8,51.3,29.75,East,90,1.0,5.0,79,0.00,,,-99.99,0,WeatherLink 5.7,2013-06-10 09:15:00,
2013-06-10 02:20:00,57.8,51.3,29.75,East,90,1.0,5.0,79,0.00,,,0.00,,Wunderground v.1.13,2013-06-10 09:20:00,
2013-06-10 02:25:00,58.1,51.6,29.76,ENE,68,0.0,4.0,79,0.00,,,0.00,,Wunderground v.1.13,2013-06-10 09:25:00,
2013-06-10 02:30:00,58.1,51.6,29.76,ENE,67,0.0,4.0,79,0.00,,,-99.99,0,WeatherLink 5.7,2013-06-10 09:30:00,
2013-06-10 02:35:00,58.1,51.6,29.76,ENE,68,0.0,4.0,79,0.00,,,0.00,,Wunderground v.1.13,2013-06-10 09:35:00,
2013-06-10 02:45:00,58.0,50.8,29.76,NW,315,1.0,5.0,77,0.00,,,-99.99,0,WeatherLink 5.7,2013-06-10 09:45:00,
2013-06-10 02:50:00,58.0,50.8,29.76,NW,315,1.0,5.0,77,0.00,,,0.00,,Wunderground v.1.13,2013-06-10 09:50:00,
2013-06-10 02:55:00,58.0,51.2,29.79,East,90,1.0,4.0,78,0.00,,,0.00,,Wunderground v.1.13,2013-06-10 09:55:00,
2013-06-10 03:00:00,58.0,51.2,29.79,East,90,1.0,4.0,78,0.00,,,-99.99,0,WeatherLink 5.7,2013-06-10 10:00:00,
2013-06-10 03:05:00,58.0,51.2,29.79,East,90,1.0,4.0,78,0.00,,,0.00,,Wunderground v.1.13,2013-06-10 10:05:00,
2013-06-10 03:10:00,57.8,50.6,29.76,ENE,68,1.0,3.0,77,0.00,,,0.00,,Wunderground v.1.13,2013-06-10 10:10:00,
2013-06-10 03:15:00,57.8,50.6,29.76,ENE,67,1.0,3.0,77,0.00,,,-99.99,0,WeatherLink 5.7,2013-06-10 10:15:00,
2013-06-10 03:20:00,57.8,50.6,29.76,ENE,68,1.0,3.0,77,0.00,,,0.00,,Wunderground v.1.13,2013-06-10 10:20:00,
2013-06-10 03:25:00,57.5,50.3,29.75,WNW,293,1.0,5.0,77,0.00,,,0.00,,Wunderground v.1.13,2013-06-10 10:25:00,
2013-06-10 03:30:00,57.5,50.3,29.75,WNW,292,1.0,5.0,77,0.00,,,-99.99,0,WeatherLink 5.7,2013-06-10 10:30:00,
2013-06-10 03:35:00,57.5,50.3,29.75,WNW,293,1.0,5.0,77,0.00,,,0.00,,Wunderground v.1.13,2013-06-10 10:35:00,
2013-06-10 03:40:00,57.3,50.5,29.77,ENE,68,1.0,6.0,78,0.00,,,0.00,,Wunderground v.1.13,2013-06-10 10:40:00,
2013-06-10 03:45:00,57.3,50.5,29.77,ENE,67,1.0,6.0,78,0.00,,,-99.99,0,WeatherLink 5.7,2013-06-10 10:45:00,
2013-06-10 03:50:00,57.3,50.5,29.77,ENE,68,1.0,6.0,78,0.00,,,0.00,,Wunderground v.1.13,2013-06-10 10:50:00,
2013-06-10 03:55:00,57.5,50.7,29.76,ENE,68,0.0,2.0,78,0.00,,,0.00,,Wunderground v.1.13,2013-06-10 10:55:00,
2013-06-10 04:00:00,57.5,50.7,29.76,ENE,67,0.0,2.0,78,0.00,,,-99.99,0,WeatherLink 5.7,2013-06-10 11:00:00,
2013-06-10 04:05:00,57.5,50.7,29.76,ENE,68,0.0,2.0,78,0.00,,,0.00,,Wunderground v.1.13,2013-06-10 11:05:00,
2013-06-10 04:10:00,57.5,50.7,29.76,ENE,68,1.0,4.0,78,0.00,,,0.00,,Wunderground v.1.13,2013-06-10 11:10:00,
2013-06-10 04:15:00,57.5,50.7,29.76,ENE,67,1.0,4.0,78,0.00,,,-99.99,0,WeatherLink 5.7,2013-06-10 11:15:00,
2013-06-10 04:20:00,57.5,50.7,29.76,ENE,68,1.0,4.0,78,0.00,,,0.00,,Wunderground v.1.13,2013-06-10 11:20:00,
2013-06-10 04:25:00,57.5,50.7,29.76,NW,315,1.0,5.0,78,0.00,,,0.00,,Wunderground v.1.13,2013-06-10 11:25:00,
2013-06-10 04:30:00,57.5,50.7,29.76,NW,315,1.0,5.0,78,0.00,,,-99.99,0,WeatherLink 5.7,2013-06-10 11:30:00,
2013-06-10 04:35:00,57.5,50.7,29.76,NW,315,1.0,5.0,78,0.00,,,0.00,,Wunderground v.1.13,2013-06-10 11:35:00,
2013-06-10 04:40:00,57.5,50.7,29.77,NW,315,0.0,4.0,78,0.00,,,0.00,,Wunderground v.1.13,2013-06-10 11:40:00,
2013-06-10 04:41:00,57.3,50.5,29.75,ENE,65,1.0,1.0,78,0.00,,,0.00,,Wunderground v.1.13,2013-06-10 11:41:00,
2013-06-10 04:45:00,57.5,50.7,29.77,NW,315,0.0,4.0,78,0.00,,,-99.99,0,WeatherLink 5.7,2013-06-10 11:45:00,
2013-06-10 04:50:00,57.5,50.7,29.77,NW,315,0.0,4.0,78,0.00,,,0.00,,Wunderground v.1.13,2013-06-10 11:50:00,
2013-06-10 04:55:00,57.5,50.7,29.77,NNE,23,0.0,2.0,78,0.00,,,0.00,,Wunderground v.1.13,2013-06-10 11:55:00,
2013-06-10 05:00:00,57.5,50.7,29.77,NNE,22,0.0,2.0,78,0.00,,,-99.99,0,WeatherLink 5.7,2013-06-10 12:00:00,
2013-06-10 05:05:00,57.5,50.7,29.77,NNE,23,0.0,2.0,78,0.00,,,0.00,,Wunderground v.1.13,2013-06-10 12:05:00,
2013-06-10 05:10:00,57.6,50.4,29.77,WNW,293,0.0,3.0,77,0.00,,,0.00,,Wunderground v.1.13,2013-06-10 12:10:00,
2013-06-10 05:15:00,57.6,50.4,29.77,WNW,292,0.0,3.0,77,0.00,,,-99.99,0,WeatherLink 5.7,2013-06-10 12:15:00,
2013-06-10 05:20:00,57.6,50.4,29.77,WNW,293,0.0,3.0,77,0.00,,,0.00,,Wunderground v.1.13,2013-06-10 12:20:00,
2013-06-10 05:25:00,57.6,50.4,29.78,ESE,113,0.0,3.0,77,0.00,,,0.00,,Wunderground v.1.13,2013-06-10 12:25:00,
2013-06-10 05:30:00,57.6,50.4,29.78,ESE,112,0.0,3.0,77,0.00,,,-99.99,0,WeatherLink 5.7,2013-06-10 12:30:00,
2013-06-10 05:35:00,57.6,50.4,29.78,ESE,113,0.0,3.0,77,0.00,,,0.00,,Wunderground v.1.13,2013-06-10 12:35:00,
2013-06-10 05:40:00,57.8,50.3,29.79,NNW,338,0.0,3.0,76,0.00,,,0.00,,Wunderground v.1.13,2013-06-10 12:40:00,
2013-06-10 05:45:00,57.8,50.3,29.79,NNW,337,0.0,3.0,76,0.00,,,-99.99,3,WeatherLink 5.7,2013-06-10 12:45:00,
2013-06-10 05:50:00,57.8,50.3,29.79,NNW,338,0.0,3.0,76,0.00,,,0.00,,Wunderground v.1.13,2013-06-10 12:50:00,
2013-06-10 05:55:00,57.5,50.3,29.77,NE,38,0.0,6.0,77,0.00,,,0.00,,Wunderground v.1.13,2013-06-10 12:55:00,
2013-06-10 06:00:00,57.8,50.3,29.79,East,90,1.0,5.0,76,0.00,,,-99.99,6,WeatherLink 5.7,2013-06-10 13:00:00,
2013-06-10 06:05:00,57.5,50.3,29.77,WNW,302,0.0,2.0,77,0.00,,,0.00,,Wunderground v.1.13,2013-06-10 13:05:00,
2013-06-10 06:15:00,57.6,50.4,29.77,NE,37,0.0,2.0,77,0.00,,,0.00,,Wunderground v.1.13,2013-06-10 13:15:00,
2013-06-10 06:20:00,57.6,50.4,29.77,West,261,0.0,2.0,77,0.00,,,0.00,,Wunderground v.1.13,2013-06-10 13:20:00,
2013-06-10 06:25:00,57.6,50.4,29.77,ESE,104,0.0,2.0,77,0.00,,,0.00,,Wunderground v.1.13,2013-06-10 13:25:00,
2013-06-10 06:30:00,57.6,50.4,29.78,North,355,0.0,3.0,77,0.00,,,0.00,,Wunderground v.1.13,2013-06-10 13:30:00,
2013-06-10 06:40:00,57.8,50.3,29.78,NNE,22,0.0,3.0,76,0.00,,,0.00,,Wunderground v.1.13,2013-06-10 13:40:00,
2013-06-10 06:45:00,58.3,50.8,29.79,NW,315,0.0,4.0,76,0.00,,,-99.99,47,WeatherLink 5.7,2013-06-10 13:45:00,
2013-06-10 06:50:00,57.8,50.3,29.79,West,263,0.0,3.0,76,0.00,,,0.00,,Wunderground v.1.13,2013-06-10 13:50:00,
2013-06-10 06:55:00,57.8,49.9,29.79,SW,223,1.0,1.0,75,0.00,,,0.00,,Wunderground v.1.13,2013-06-10 13:55:00,
2013-06-10 07:00:00,57.8,50.3,29.79,East,96,1.0,1.0,76,0.00,,,0.00,,Wunderground v.1.13,2013-06-10 14:00:00,
2013-06-10 07:10:00,57.8,50.3,29.79,NNW,348,1.0,5.0,76,0.00,,,0.00,,Wunderground v.1.13,2013-06-10 14:10:00,
2013-06-10 07:15:00,57.8,50.3,29.79,NNE,22,1.0,5.0,76,0.00,,,0.00,,Wunderground v.1.13,2013-06-10 14:15:00,
2013-06-10 07:20:00,57.8,50.3,29.79,North,355,0.0,5.0,76,0.00,,,0.00,,Wunderground v.1.13,2013-06-10 14:20:00,
2013-06-10 07:25:00,58.0,50.5,29.79,NNW,331,0.0,5.0,76,0.00,,,0.00,,Wunderground v.1.13,2013-06-10 14:25:00,
2013-06-10 07:30:00,58.0,50.5,29.79,East,101,1.0,1.0,76,0.00,,,0.00,,Wunderground v.1.13,2013-06-10 14:30:00,
2013-06-10 07:40:00,58.1,50.2,29.79,NW,323,0.0,4.0,75,0.00,,,0.00,,Wunderground v.1.13,2013-06-10 14:40:00,
2013-06-10 07:45:00,58.3,50.8,29.79,NNW,327,0.0,4.0,76,0.00,,,0.00,,Wunderground v.1.13,2013-06-10 14:45:00,
2013-06-10 07:55:00,58.3,50.4,29.79,WNW,288,1.0,1.0,75,0.00,,,0.00,,Wunderground v.1.13,2013-06-10 14:55:00,
2013-06-10 08:00:00,58.4,50.5,29.80,NNW,327,1.0,1.0,75,0.00,,,0.00,,Wunderground v.1.13,2013-06-10 15:00:00,
2013-06-10 08:10:00,58.4,50.1,29.80,NW,313,1.0,1.0,74,0.00,,,0.00,,Wunderground v.1.13,2013-06-10 15:10:00,
2013-06-10 08:15:00,58.4,50.5,29.80,WNW,285,1.0,1.0,75,0.00,,,0.00,,Wunderground v.1.13,2013-06-10 15:15:00,
2013-06-10 08:20:00,58.4,50.5,29.80,West,273,0.0,5.0,75,0.00,,,0.00,,Wunderground v.1.13,2013-06-10 15:20:00,
2013-06-10 08:30:00,58.6,50.7,29.80,ESE,118,1.0,1.0,75,0.00,,,0.00,,Wunderground v.1.13,2013-06-10 15:30:00,
2013-06-10 08:35:00,58.6,50.7,29.80,NNW,338,0.0,5.0,75,0.00,,,0.00,,Wunderground v.1.13,2013-06-10 15:35:00,
2013-06-10 08:40:00,58.6,50.3,29.80,NNW,328,0.0,5.0,74,0.00,,,0.00,,Wunderground v.1.13,2013-06-10 15:40:00,
2013-06-10 08:45:00,58.9,51.0,29.81,NNW,328,0.0,5.0,75,0.00,,,0.00,,Wunderground v.1.13,2013-06-10 15:45:00,
2013-06-10 08:50:00,59.2,50.9,29.81,ENE,60,0.0,5.0,74,0.00,,,0.00,,Wunderground v.1.13,2013-06-10 15:50:00,
2013-06-10 09:00:00,59.6,50.2,29.82,NE,40,1.0,5.0,71,0.00,,,0.00,,Wunderground v.1.13,2013-06-10 16:00:00,
2013-06-10 09:10:00,59.9,50.1,29.82,ENE,73,1.0,4.0,70,0.00,,,0.00,,Wunderground v.1.13,2013-06-10 16:10:00,
2013-06-10 09:15:00,60.1,49.9,29.82,ENE,71,1.0,1.0,69,0.00,,,0.00,,Wunderground v.1.13,2013-06-10 16:15:00,
2013-06-10 09:20:00,60.2,50.0,29.82,West,277,1.0,1.0,69,0.00,,,0.00,,Wunderground v.1.13,2013-06-10 16:20:00,
2013-06-10 09:25:00,60.2,50.0,29.82,NW,311,1.0,4.0,69,0.00,,,0.00,,Wunderground v.1.13,2013-06-10 16:25:00,
2013-06-10 09:30:00,63.7,50.0,29.83,NW,315,2.0,7.0,61,0.00,,,-99.99,150,WeatherLink 5.7,2013-06-10 16:30:00,
2013-06-10 09:35:00,60.9,50.3,29.81,NE,39,1.0,1.0,68,0.00,,,0.00,,Wunderground v.1.13,2013-06-10 16:35:00,
2013-06-10 09:40:00,61.2,50.2,29.81,NE,53,1.0,5.0,67,0.00,,,0.00,,Wunderground v.1.13,2013-06-10 16:40:00,
2013-06-10 09:45:00,61.5,50.8,29.82,NNE,12,1.0,1.0,68,0.00,,,0.00,,Wunderground v.1.13,2013-06-10 16:45:00,
2013-06-10 09:50:00,61.8,50.3,29.82,East,92,1.0,5.0,66,0.00,,,0.00,,Wunderground v.1.13,2013-06-10 16:50:00,
2013-06-10 09:55:00,61.6,50.1,29.82,SW,215,1.0,5.0,66,0.00,,,0.00,,Wunderground v.1.13,2013-06-10 16:55:00,
2013-06-10 10:00:00,64.8,51.0,29.83,NW,315,1.0,7.0,61,0.00,,,-99.99,279,WeatherLink 5.7,2013-06-10 17:00:00,
2013-06-10 10:05:00,62.0,50.9,29.82,WNW,290,1.0,12.0,67,0.00,,,0.00,,Wunderground v.1.13,2013-06-10 17:05:00,
2013-06-10 10:10:00,62.4,50.5,29.82,East,84,1.0,1.0,65,0.00,,,0.00,,Wunderground v.1.13,2013-06-10 17:10:00,
2013-06-10 10:15:00,63.1,50.7,29.82,West,265,1.0,5.0,64,0.00,,,0.00,,Wunderground v.1.13,2013-06-10 17:15:00,
2013-06-10 10:25:00,63.7,50.4,29.82,NW,308,2.0,2.0,62,0.00,,,0.00,,Wunderground v.1.13,2013-06-10 17:25:00,
2013-06-10 10:30:00,63.7,50.0,29.83,NE,46,2.0,2.0,61,0.00,,,0.00,,Wunderground v.1.13,2013-06-10 17:30:00,
2013-06-10 10:40:00,63.5,50.2,29.83,East,88,1.0,7.0,62,0.00,,,0.00,,Wunderground v.1.13,2013-06-10 17:40:00,
2013-06-10 10:45:00,63.4,50.1,29.83,West,277,2.0,2.0,62,0.00,,,0.00,,Wunderground v.1.13,2013-06-10 17:45:00,
2013-06-10 10:50:00,63.7,50.9,29.83,NW,314,2.0,2.0,63,0.00,,,0.00,,Wunderground v.1.13,2013-06-10 17:50:00,
2013-06-10 10:55:00,64.2,51.3,29.83,SE,146,1.0,1.0,63,0.00,,,0.00,,Wunderground v.1.13,2013-06-10 17:55:00,
2013-06-10 11:00:00,64.7,50.9,29.83,East,90,1.0,7.0,61,0.00,,,0.00,,Wunderground v.1.13,2013-06-10 18:00:00,
2013-06-10 11:05:00,65.0,50.8,29.83,NW,310,1.0,7.0,60,0.00,,,0.00,,Wunderground v.1.13,2013-06-10 18:05:00,
2013-06-10 11:15:00,64.8,50.6,29.85,WNW,286,2.0,2.0,60,0.00,,,0.00,,Wunderground v.1.13,2013-06-10 18:15:00,
2013-06-10 11:20:00,65.0,51.2,29.85,ENE,73,1.0,7.0,61,0.00,,,0.00,,Wunderground v.1.13,2013-06-10 18:20:00,
2013-06-10 11:30:00,65.8,51.5,29.84,East,88,1.0,7.0,60,0.00,,,0.00,,Wunderground v.1.13,2013-06-10 18:30:00,
2013-06-10 11:40:00,67.1,51.8,29.84,East,96,2.0,5.0,58,0.00,,,0.00,,Wunderground v.1.13,2013-06-10 18:40:00,
2013-06-10 11:45:00,67.6,51.3,29.85,WNW,294,2.0,2.0,56,0.00,,,0.00,,Wunderground v.1.13,2013-06-10 18:45:00,
2013-06-10 11:50:00,67.4,51.6,29.85,East,92,1.0,1.0,57,0.00,,,0.00,,Wunderground v.1.13,2013-06-10 18:50:00,
2013-06-10 11:55:00,67.1,50.9,29.85,East,96,2.0,2.0,56,0.00,,,0.00,,Wunderground v.1.13,2013-06-10 18:55:00,
2013-06-10 12:00:00,66.9,51.2,29.85,NNE,15,1.0,5.0,57,0.00,,,0.00,,Wunderground v.1.13,2013-06-10 19:00:00,
2013-06-10 12:10:00,67.6,52.3,29.85,North,11,1.0,4.0,58,0.00,,,0.00,,Wunderground v.1.13,2013-06-10 19:10:00,
2013-06-10 12:15:00,68.6,51.8,29.84,East,101,1.0,4.0,55,0.00,,,0.00,,Wunderground v.1.13,2013-06-10 19:15:00,
2013-06-10 12:25:00,68.4,51.1,29.84,ENE,67,1.0,4.0,54,0.00,,,0.00,,Wunderground v.1.13,2013-06-10 19:25:00,
2013-06-10 12:30:00,67.6,50.9,29.84,ENE,77,1.0,4.0,55,0.00,,,0.00,,Wunderground v.1.13,2013-06-10 19:30:00,
2013-06-10 12:40:00,66.8,51.1,29.84,NNW,334,2.0,2.0,57,0.00,,,0.00,,Wunderground v.1.13,2013-06-10 19:40:00,
2013-06-10 12:45:00,67.8,51.0,29.83,ENE,76,2.0,6.0,55,0.00,,,0.00,,Wunderground v.1.13,2013-06-10 19:45:00,
2013-06-10 12:50:00,68.6,51.3,29.83,NW,318,2.0,2.0,54,0.00,,,0.00,,Wunderground v.1.13,2013-06-10 19:50:00,
2013-06-10 13:00:00,70.3,52.4,29.83,NE,49,1.0,6.0,53,0.00,,,0.00,,Wunderground v.1.13,2013-06-10 20:00:00,
2013-06-10 13:05:00,69.9,50.9,29.83,ESE,115,2.0,6.0,51,0.00,,,0.00,,Wunderground v.1.13,2013-06-10 20:05:00,
2013-06-10 13:15:00,70.1,52.2,29.84,WNW,289,1.0,1.0,53,0.00,,,0.00,,Wunderground v.1.13,2013-06-10 20:15:00,
2013-06-10 13:20:00,70.6,51.1,29.84,NW,311,2.0,2.0,50,0.00,,,0.00,,Wunderground v.1.13,2013-06-10 20:20:00,
2013-06-10 13:30:00,70.3,51.3,29.84,ESE,105,2.0,6.0,51,0.00,,,0.00,,Wunderground v.1.13,2013-06-10 20:30:00,
2013-06-10 13:40:00,70.3,51.8,29.84,ESE,103,1.0,9.0,52,0.00,,,0.00,,Wunderground v.1.13,2013-06-10 20:40:00,
2013-06-10 13:45:00,70.4,51.4,29.84,West,277,1.0,10.0,51,0.00,,,0.00,,Wunderground v.1.13,2013-06-10 20:45:00,
2013-06-10 13:50:00,70.4,51.9,29.84,East,96,2.0,2.0,52,0.00,,,0.00,,Wunderground v.1.13,2013-06-10 20:50:00,
2013-06-10 13:55:00,70.8,51.8,29.84,East,90,2.0,2.0,51,0.00,,,0.00,,Wunderground v.1.13,2013-06-10 20:55:00,
2013-06-10 14:00:00,70.9,51.3,29.83,ESE,105,1.0,9.0,50,0.00,,,0.00,,Wunderground v.1.13,2013-06-10 21:00:00,
2013-06-10 14:10:00,70.8,51.2,29.83,SE,140,2.0,2.0,50,0.00,,,0.00,,Wunderground v.1.13,2013-06-10 21:10:00,
2013-06-10 14:15:00,70.9,51.3,29.83,East,82,1.0,6.0,50,0.00,,,0.00,,Wunderground v.1.13,2013-06-10 21:15:00,
2013-06-10 14:20:00,70.9,51.3,29.83,NNW,331,1.0,6.0,50,0.00,,,0.00,,Wunderground v.1.13,2013-06-10 21:20:00,
2013-06-10 14:25:00,71.3,50.6,29.83,WNW,302,2.0,6.0,48,0.00,,,0.00,,Wunderground v.1.13,2013-06-10 21:25:00,
2013-06-10 14:30:00,71.3,51.1,29.83,WNW,290,2.0,6.0,49,0.00,,,0.00,,Wunderground v.1.13,2013-06-10 21:30:00,
2013-06-10 14:35:00,70.8,51.8,29.83,NW,304,2.0,2.0,51,0.00,,,0.00,,Wunderground v.1.13,2013-06-10 21:35:00,
2013-06-10 14:40:00,70.4,51.9,29.83,NNW,338,2.0,2.0,52,0.00,,,0.00,,Wunderground v.1.13,2013-06-10 21:40:00,
2013-06-10 14:45:00,70.4,53.0,29.84,East,92,1.0,1.0,54,0.00,,,0.00,,Wunderground v.1.13,2013-06-10 21:45:00,
2013-06-10 14:50:00,70.3,52.9,29.84,West,269,1.0,1.0,54,0.00,,,0.00,,Wunderground v.1.13,2013-06-10 21:50:00,
2013-06-10 14:55:00,69.9,51.5,29.84,East,80,1.0,9.0,52,0.00,,,0.00,,Wunderground v.1.13,2013-06-10 21:55:00,
2013-06-10 15:00:00,69.1,51.8,29.85,West,263,1.0,9.0,54,0.00,,,0.00,,Wunderground v.1.13,2013-06-10 22:00:00,
2013-06-10 15:10:00,68.8,52.0,29.85,NNW,329,1.0,1.0,55,0.00,,,0.00,,Wunderground v.1.13,2013-06-10 22:10:00,
2013-06-10 15:15:00,68.6,51.8,29.85,NNW,342,1.0,1.0,55,0.00,,,0.00,,Wunderground v.1.13,2013-06-10 22:15:00,
2013-06-10 15:20:00,69.1,52.7,29.85,WNW,288,1.0,5.0,56,0.00,,,0.00,,Wunderground v.1.13,2013-06-10 22:20:00,
2013-06-10 15:25:00,69.9,52.5,29.85,East,93,1.0,5.0,54,0.00,,,0.00,,Wunderground v.1.13,2013-06-10 22:25:00,
2013-06-10 15:30:00,70.8,51.2,29.85,NNW,346,1.0,1.0,50,0.00,,,0.00,,Wunderground v.1.13,2013-06-10 22:30:00,
2013-06-10 15:40:00,72.0,51.2,29.85,ESE,111,1.0,5.0,48,0.00,,,0.00,,Wunderground v.1.13,2013-06-10 22:40:00,
2013-06-10 15:45:00,71.8,52.2,29.85,ESE,104,1.0,5.0,50,0.00,,,0.00,,Wunderground v.1.13,2013-06-10 22:45:00,
2013-06-10 15:50:00,71.6,50.9,29.85,East,82,2.0,2.0,48,0.00,,,0.00,,Wunderground v.1.13,2013-06-10 22:50:00,
2013-06-10 15:55:00,71.5,51.9,29.85,ENE,65,2.0,2.0,50,0.00,,,0.00,,Wunderground v.1.13,2013-06-10 22:55:00,
2013-06-10 16:00:00,71.8,52.2,29.85,ENE,70,1.0,5.0,50,0.00,,,0.00,,Wunderground v.1.13,2013-06-10 23:00:00,
2013-06-10 16:05:00,72.1,51.9,29.85,ESE,103,1.0,9.0,49,0.00,,,0.00,,Wunderground v.1.13,2013-06-10 23:05:00,
2013-06-10 16:10:00,72.5,52.2,29.85,WNW,283,1.0,9.0,49,0.00,,,0.00,,Wunderground v.1.13,2013-06-10 23:10:00,
2013-06-10 16:15:00,70.3,51.8,29.84,NW,315,1.0,7.0,52,0.00,,,-99.99,576,WeatherLink 5.7,2013-06-10 23:15:00,
2013-06-10 16:20:00,72.0,52.3,29.85,WSW,258,1.0,9.0,50,0.00,,,0.00,,Wunderground v.1.13,2013-06-10 23:20:00,
2013-06-10 16:25:00,71.6,52.0,29.85,NW,310,2.0,2.0,50,0.00,,,0.00,,Wunderground v.1.13,2013-06-10 23:25:00,
2013-06-10 16:30:00,71.3,51.7,29.85,NE,38,2.0,2.0,50,0.00,,,0.00,,Wunderground v.1.13,2013-06-10 23:30:00,
2013-06-10 16:40:00,70.8,52.3,29.85,ENE,64,2.0,2.0,52,0.00,,,0.00,,Wunderground v.1.13,2013-06-10 23:40:00,
2013-06-10 16:45:00,70.3,51.8,29.83,WNW,292,2.0,7.0,52,0.00,,,-99.99,474,WeatherLink 5.7,2013-06-10 23:45:00,
2013-06-10 16:50:00,70.3,51.8,29.85,SE,135,2.0,12.0,52,0.00,,,0.00,,Wunderground v.1.13,2013-06-10 23:50:00,
2013-06-10 16:55:00,70.1,51.7,29.85,NW,317,1.0,1.0,52,0.00,,,0.00,,Wunderground v.1.13,2013-06-10 23:55:00,
2013-06-10 17:00:00,70.3,52.9,29.85,NW,309,1.0,1.0,54,0.00,,,0.00,,Wunderground v.1.13,2013-06-11 00:00:00,
2013-06-10 17:05:00,70.6,51.6,29.85,WSW,257,1.0,9.0,51,0.00,,,0.00,,Wunderground v.1.13,2013-06-11 00:05:00,
2013-06-10 17:10:00,70.6,52.1,29.85,ENE,69,1.0,9.0,52,0.00,,,0.00,,Wunderground v.1.13,2013-06-11 00:10:00,
2013-06-10 17:15:00,68.3,52.5,29.84,NW,315,1.0,6.0,57,0.00,,,-99.99,377,WeatherLink 5.7,2013-06-11 00:15:00,
2013-06-10 17:20:00,70.3,51.3,29.84,NW,321,1.0,1.0,51,0.00,,,0.00,,Wunderground v.1.13,2013-06-11 00:20:00,
2013-06-10 17:25:00,70.4,51.4,29.84,NNW,327,1.0,1.0,51,0.00,,,0.00,,Wunderground v.1.13,2013-06-11 00:25:00,
2013-06-10 17:30:00,67.3,52.0,29.84,West,270,1.0,7.0,58,0.00,,,-99.99,320,WeatherLink 5.7,2013-06-11 00:30:00,
2013-06-10 17:35:00,70.4,51.9,29.83,North,11,2.0,2.0,52,0.00,,,0.00,,Wunderground v.1.13,2013-06-11 00:35:00,
2013-06-10 17:40:00,70.3,52.4,29.83,WNW,298,2.0,10.0,53,0.00,,,0.00,,Wunderground v.1.13,2013-06-11 00:40:00,
2013-06-10 17:45:00,70.3,51.8,29.83,WNW,300,1.0,10.0,52,0.00,,,0.00,,Wunderground v.1.13,2013-06-11 00:45:00,
2013-06-10 17:55:00,70.1,52.7,29.83,WNW,286,2.0,2.0,54,0.00,,,0.00,,Wunderground v.1.13,2013-06-11 00:55:00,
2013-06-10 18:00:00,69.1,52.2,29.83,West,271,2.0,10.0,55,0.00,,,0.00,,Wunderground v.1.13,2013-06-11 01:00:00,
2013-06-10 18:10:00,67.9,52.6,29.83,NW,319,1.0,1.0,58,0.00,,,0.00,,Wunderground v.1.13,2013-06-11 01:10:00,
2013-06-10 18:15:00,68.3,52.5,29.84,NNE,24,1.0,10.0,57,0.00,,,0.00,,Wunderground v.1.13,2013-06-11 01:15:00,
2013-06-10 18:20:00,67.6,52.8,29.84,West,269,1.0,10.0,59,0.00,,,0.00,,Wunderground v.1.13,2013-06-11 01:20:00,
2013-06-10 18:25:00,67.3,52.5,29.84,WSW,258,2.0,2.0,59,0.00,,,0.00,,Wunderground v.1.13,2013-06-11 01:25:00,
2013-06-10 18:30:00,63.9,51.9,29.84,NW,315,1.0,6.0,65,0.00,,,-99.99,57,WeatherLink 5.7,2013-06-11 01:30:00,
2013-06-10 18:35:00,66.9,52.6,29.84,West,276,2.0,7.0,60,0.00,,,0.00,,Wunderground v.1.13,2013-06-11 01:35:00,
2013-06-10 18:40:00,66.6,52.3,29.84,West,275,2.0,2.0,60,0.00,,,0.00,,Wunderground v.1.13,2013-06-11 01:40:00,
2013-06-10 18:45:00,66.1,52.3,29.84,NW,304,2.0,2.0,61,0.00,,,0.00,,Wunderground v.1.13,2013-06-11 01:45:00,
2013-06-10 18:50:00,66.0,52.6,29.84,West,280,2.0,7.0,62,0.00,,,0.00,,Wunderground v.1.13,2013-06-11 01:50:00,
2013-06-10 19:00:00,65.2,52.3,29.84,NNW,346,2.0,2.0,63,0.00,,,0.00,,Wunderground v.1.13,2013-06-11 02:00:00,
2013-06-10 19:10:00,65.2,52.3,29.84,NW,315,1.0,1.0,63,0.00,,,0.00,,Wunderground v.1.13,2013-06-11 02:10:00,
2013-06-10 19:15:00,60.9,51.0,29.85,WSW,247,0.0,5.0,70,0.00,,,-99.99,13,WeatherLink 5.7,2013-06-11 02:15:00,
2013-06-10 19:20:00,65.2,52.3,29.84,NNW,327,1.0,1.0,63,0.00,,,0.00,,Wunderground v.1.13,2013-06-11 02:20:00,
2013-06-10 19:25:00,64.7,52.2,29.84,WSW,258,1.0,1.0,64,0.00,,,0.00,,Wunderground v.1.13,2013-06-11 02:25:00,
2013-06-10 19:30:00,60.1,51.0,29.85,WSW,247,0.0,5.0,72,0.00,,,-99.99,6,WeatherLink 5.7,2013-06-11 02:30:00,
2013-06-10 19:35:00,63.4,51.8,29.84,NW,311,1.0,1.0,66,0.00,,,0.00,,Wunderground v.1.13,2013-06-11 02:35:00,
2013-06-10 19:40:00,62.9,51.8,29.84,West,263,1.0,1.0,67,0.00,,,0.00,,Wunderground v.1.13,2013-06-11 02:40:00,
2013-06-10 19:45:00,62.7,51.6,29.84,West,279,0.0,6.0,67,0.00,,,0.00,,Wunderground v.1.13,2013-06-11 02:45:00,
2013-06-10 19:50:00,62.4,51.3,29.84,West,279,0.0,6.0,67,0.00,,,0.00,,Wunderground v.1.13,2013-06-11 02:50:00,
2013-06-10 19:55:00,62.1,51.4,29.84,WNW,286,1.0,6.0,68,0.00,,,0.00,,Wunderground v.1.13,2013-06-11 02:55:00,
2013-06-10 20:00:00,59.3,51.0,29.85,NNW,337,0.0,2.0,74,0.00,,,-99.99,0,WeatherLink 5.7,2013-06-11 03:00:00,
2013-06-10 20:05:00,61.5,51.2,29.85,WNW,286,0.0,5.0,69,0.00,,,0.00,,Wunderground v.1.13,2013-06-11 03:05:00,
2013-06-10 20:10:00,61.2,51.3,29.85,WSW,257,0.0,5.0,70,0.00,,,0.00,,Wunderground v.1.13,2013-06-11 03:10:00,
2013-06-10 20:15:00,60.9,51.0,29.85,WSW,252,1.0,5.0,70,0.00,,,0.00,,Wunderground v.1.13,2013-06-11 03:15:00,
2013-06-10 20:20:00,60.5,51.0,29.85,West,268,1.0,1.0,71,0.00,,,0.00,,Wunderground v.1.13,2013-06-11 03:20:00,
2013-06-10 20:25:00,60.2,51.1,29.85,West,268,1.0,1.0,72,0.00,,,0.00,,Wunderground v.1.13,2013-06-11 03:25:00,
2013-06-10 20:30:00,60.1,51.0,29.85,NNW,329,0.0,5.0,72,0.00,,,0.00,,Wunderground v.1.13,2013-06-11 03:30:00,
2013-06-10 20:35:00,59.9,50.8,29.85,NNW,329,0.0,5.0,72,0.00,,,0.00,,Wunderground v.1.13,2013-06-11 03:35:00,
2013-06-10 20:40:00,59.6,50.9,29.85,NNW,329,0.0,5.0,73,0.00,,,0.00,,Wunderground v.1.13,2013-06-11 03:40:00,
2013-06-10 20:45:00,59.5,50.8,29.85,NNW,329,0.0,5.0,73,0.00,,,0.00,,Wunderground v.1.13,2013-06-11 03:45:00,
2013-06-10 20:50:00,59.3,50.6,29.85,NNW,329,0.0,5.0,73,0.00,,,0.00,,Wunderground v.1.13,2013-06-11 03:50:00,
2013-06-10 20:55:00,59.3,50.6,29.85,NNW,329,0.0,5.0,73,0.00,,,0.00,,Wunderground v.1.13,2013-06-11 03:55:00,
2013-06-10 21:00:00,59.3,51.0,29.85,NNW,329,0.0,5.0,74,0.00,,,0.00,,Wunderground v.1.13,2013-06-11 04:00:00,
2013-06-10 21:05:00,59.2,50.9,29.85,NNW,329,0.0,2.0,74,0.00,,,0.00,,Wunderground v.1.13,2013-06-11 04:05:00,
2013-06-10 21:15:00,58.9,50.6,29.86,West,277,0.0,2.0,74,0.00,,,0.00,,Wunderground v.1.13,2013-06-11 04:15:00,
2013-06-10 21:20:00,58.7,50.8,29.86,West,277,0.0,2.0,75,0.00,,,0.00,,Wunderground v.1.13,2013-06-11 04:20:00,
2013-06-10 21:25:00,58.7,50.8,29.86,West,277,0.0,2.0,75,0.00,,,0.00,,Wunderground v.1.13,2013-06-11 04:25:00,
2013-06-10 21:30:00,58.6,50.7,29.86,West,277,0.0,2.0,75,0.00,,,0.00,,Wunderground v.1.13,2013-06-11 04:30:00,
2013-06-10 21:35:00,58.6,50.7,29.86,West,277,0.0,1.0,75,0.00,,,0.00,,Wunderground v.1.13,2013-06-11 04:35:00,
2013-06-10 21:45:00,58.3,50.8,29.86,West,277,0.0,1.0,76,0.00,,,0.00,,Wunderground v.1.13,2013-06-11 04:45:00,
2013-06-10 21:50:00,58.3,50.8,29.86,West,277,0.0,1.0,76,0.00,,,0.00,,Wunderground v.1.13,2013-06-11 04:50:00,
2013-06-10 22:00:00,58.1,50.6,29.87,West,277,0.0,1.0,76,0.00,,,0.00,,Wunderground v.1.13,2013-06-11 05:00:00,
2013-06-10 22:05:00,58.0,50.5,29.87,West,277,0.0,0.0,76,0.00,,,0.00,,Wunderground v.1.13,2013-06-11 05:05:00,
2013-06-10 22:10:00,57.8,50.6,29.87,West,277,0.0,0.0,77,0.00,,,0.00,,Wunderground v.1.13,2013-06-11 05:10:00,
2013-06-10 22:15:00,56.2,50.4,29.86,North,-999,0.0,0.0,81,0.00,,,-99.99,0,WeatherLink 5.7,2013-06-11 05:15:00,
2013-06-10 22:20:00,57.6,50.4,29.87,West,277,0.0,0.0,77,0.00,,,0.00,,Wunderground v.1.13,2013-06-11 05:20:00,
2013-06-10 22:25:00,57.5,50.3,29.87,West,277,0.0,0.0,77,0.00,,,0.00,,Wunderground v.1.13,2013-06-11 05:25:00,
2013-06-10 22:30:00,57.3,50.1,29.87,West,277,0.0,0.0,77,0.00,,,0.00,,Wunderground v.1.13,2013-06-11 05:30:00,
2013-06-10 22:35:00,57.2,50.4,29.87,West,277,0.0,0.0,78,0.00,,,0.00,,Wunderground v.1.13,2013-06-11 05:35:00,
2013-06-10 22:45:00,56.9,50.1,29.86,West,277,0.0,0.0,78,0.00,,,0.00,,Wunderground v.1.13,2013-06-11 05:45:00,
2013-06-10 22:55:00,56.6,50.5,29.86,West,277,0.0,0.0,80,0.00,,,0.00,,Wunderground v.1.13,2013-06-11 05:55:00,
2013-06-10 23:00:00,55.6,50.2,29.86,North,-999,0.0,0.0,82,0.00,,,-99.99,0,WeatherLink 5.7,2013-06-11 06:00:00,
2013-06-10 23:05:00,56.3,50.2,29.86,West,277,0.0,1.0,80,0.00,,,0.00,,Wunderground v.1.13,2013-06-11 06:05:00,
2013-06-10 23:10:00,56.3,50.2,29.86,West,277,0.0,1.0,80,0.00,,,0.00,,Wunderground v.1.13,2013-06-11 06:10:00,
2013-06-10 23:15:00,55.3,49.6,29.86,North,-999,0.0,0.0,81,0.00,,,-99.99,0,WeatherLink 5.7,2013-06-11 06:15:00,
2013-06-10 23:20:00,56.2,50.4,29.86,West,277,0.0,1.0,81,0.00,,,0.00,,Wunderground v.1.13,2013-06-11 06:20:00,
2013-06-10 23:30:00,56.0,50.3,29.86,West,277,0.0,1.0,81,0.00,,,0.00,,Wunderground v.1.13,2013-06-11 06:30:00,
2013-06-10 23:40:00,55.9,50.2,29.86,West,277,0.0,2.0,81,0.00,,,0.00,,Wunderground v.1.13,2013-06-11 06:40:00,
2013-06-10 23:45:00,55.7,50.3,29.86,West,277,0.0,2.0,82,0.00,,,0.00,,Wunderground v.1.13,2013-06-11 06:45:00,
2013-06-10 23:55:00,55.6,50.2,29.86,West,277,0.0,2.0,82,0.00,,,0.00,,Wunderground v.1.13,2013-06-11 06:55:00,